Regional Weather Roundup
Issued by NWS

Home | Current Version | Previous Version | Graphics & Text | Print | Product List | Glossary On
Versions: 1 2 3 4 5 6 7 8 9 10 11 12 13 14 15 16 17 18 19 20 21 22 23 24 25 26 27 28 29 30 31 32 33 34 35 36 37 38 39 40 41 42 43 44 45 46 47 48 49 50
000
ASUS43 KFSD 011002
RWRSD

WEATHER ROUNDUP FOR SOUTH DAKOTA
NATIONAL WEATHER SERVICE SIOUX FALLS SD
500 AM CDT TUE SEP 01 2015

NOTE: "FAIR" INDICATES FEW OR NO CLOUDS BELOW 12,000 FEET WITH NO
SIGNIFICANT WEATHER AND/OR OBSTRUCTIONS TO VISIBILITY.


SDZ001>005-009-010-012>017-011100-
NORTHWEST AND NORTH CENTRAL SOUTH DAKOTA

CITY           SKY/WX    TMP DP  RH WIND       PRES   REMARKS
MOBRIDGE       PTCLDY    59  58  96 SE6       29.86F
$$

SDZ012>016-024>037-041>051-057-063-072>074-011100-
SOUTHWEST AND SOUTH CENTRAL SOUTH DAKOTA

CITY           SKY/WX    TMP DP  RH WIND       PRES   REMARKS
RAPID CTY ARPT CLEAR     55  54  96 CALM      29.90R
PIERRE         CLEAR     59  58  96 E3        29.87F
CUSTER         CLEAR     56  45  66 SW5       30.04S
ELLSWORTH AFB  CLEAR     59  57  95 S3        29.89S
PHILIP         PTCLDY    63  60  90 CALM      29.88F
PINE RIDGE     CLEAR     64  52  64 W3        29.93S
WINNER         FAIR      64  60  87 CALM      29.89F
$$

SDZ004>011-016>023-039-040-011100-
NORTHEAST SOUTH DAKOTA

CITY           SKY/WX    TMP DP  RH WIND       PRES   REMARKS
ABERDEEN       CLOUDY    60  58  92 NE7       29.88S
WATERTOWN      CLOUDY    67  64  90 E3        29.91S
BROOKINGS      CLOUDY    70  66  88 SE5       29.91S
$$

SDZ017-020-022-023-036>040-048>070-011100-
SOUTHEAST SOUTH DAKOTA

CITY           SKY/WX    TMP DP  RH WIND       PRES   REMARKS
SIOUX FALLS    CLOUDY    69  66  90 E3        29.89S
HURON          CLOUDY    63  62  97 NW5       29.87S
CHAMBERLAIN    MOCLDY    64  63  94 CALM      29.88F
MITCHELL       CLOUDY    66  65  96 NW5       29.87F
YANKTON        MOCLDY    66  64  94 E5        29.86S
$$

ABBREVIATIONS USED IN REMARKS
   TC - TEMPERATURE IN CELSIUS
  WCI - WIND CHILL INDEX
   HX - HEAT INDEX
  VSB - VISIBILITY



USA.gov is the U.S. government's official web portal to all federal, state and local government web resources and services.